Time,TemperatureF,DewpointF,PressureIn,WindDirection,WindDirectionDegrees,WindSpeedMPH,WindSpeedGustMPH,Humidity,HourlyPrecipIn,Conditions,Clouds,dailyrainin,SolarRadiationWatts/m^2,SoftwareType,DateUTC
2013-03-04 00:01:00,24.0,1.0,-100.00,NW,318,1.0,7.0,36,0.00,,,0.06,0.000000,,2013-03-04 05:01:00,
2013-03-04 00:11:00,24.0,1.0,-100.00,NW,318,1.0,7.0,36,0.00,,,0.06,0.000000,,2013-03-04 05:11:00,
2013-03-04 00:22:00,24.0,1.0,-100.00,NW,318,1.0,7.0,36,0.00,,,0.06,0.000000,,2013-03-04 05:22:00,
2013-03-04 00:31:00,24.0,1.0,-100.00,NW,318,1.0,7.0,36,0.00,,,0.06,0.000000,,2013-03-04 05:31:00,
2013-03-04 01:01:00,23.0,3.0,-100.00,NW,314,4.0,6.0,42,0.00,,,0.06,0.000000,,2013-03-04 06:01:00,
2013-03-04 01:11:00,23.0,3.0,-100.00,NW,314,4.0,6.0,42,0.00,,,0.06,0.000000,,2013-03-04 06:11:00,
2013-03-04 01:21:00,23.0,3.0,-100.00,NW,314,4.0,6.0,42,0.00,,,0.06,0.000000,,2013-03-04 06:21:00,
2013-03-04 01:31:00,23.0,3.0,-100.00,NW,314,4.0,6.0,42,0.00,,,0.06,0.000000,,2013-03-04 06:31:00,
2013-03-04 02:01:00,21.0,3.0,-100.00,West,266,1.0,5.0,44,0.00,,,0.05,0.000000,,2013-03-04 07:01:00,
2013-03-04 02:11:00,21.0,3.0,-100.00,West,266,1.0,5.0,44,0.00,,,0.05,0.000000,,2013-03-04 07:11:00,
2013-03-04 02:21:00,21.0,3.0,-100.00,West,266,1.0,5.0,44,0.00,,,0.05,0.000000,,2013-03-04 07:21:00,
2013-03-04 02:31:00,21.0,3.0,-100.00,West,266,1.0,5.0,44,0.00,,,0.05,0.000000,,2013-03-04 07:31:00,
2013-03-04 02:52:00,20.0,3.0,-100.00,NNW,339,1.0,8.0,47,0.00,,,0.05,0.000000,,2013-03-04 07:52:00,
2013-03-04 03:01:00,20.0,3.0,-100.00,NNW,339,1.0,8.0,47,0.00,,,0.05,0.000000,,2013-03-04 08:01:00,
2013-03-04 03:11:00,20.0,3.0,-100.00,NNW,339,1.0,8.0,47,0.00,,,0.05,0.000000,,2013-03-04 08:11:00,
2013-03-04 03:21:00,20.0,3.0,-100.00,NNW,339,1.0,8.0,47,0.00,,,0.05,0.000000,,2013-03-04 08:21:00,
2013-03-04 03:31:00,20.0,3.0,-100.00,NNW,339,1.0,8.0,47,0.00,,,0.05,0.000000,,2013-03-04 08:31:00,
2013-03-04 03:52:00,19.0,5.0,-100.00,ENE,77,2.0,6.0,53,0.00,,,0.05,0.000000,,2013-03-04 08:52:00,
2013-03-04 04:01:00,19.0,5.0,-100.00,ENE,77,2.0,6.0,53,0.00,,,0.05,0.000000,,2013-03-04 09:01:00,
2013-03-04 04:11:00,19.0,5.0,-100.00,ENE,77,2.0,6.0,53,0.00,,,0.05,0.000000,,2013-03-04 09:11:00,
2013-03-04 04:21:00,19.0,5.0,-100.00,ENE,77,2.0,6.0,53,0.00,,,0.05,0.000000,,2013-03-04 09:21:00,
2013-03-04 04:31:00,19.0,5.0,-100.00,ENE,77,2.0,6.0,53,0.00,,,0.05,0.000000,,2013-03-04 09:31:00,
2013-03-04 04:52:00,18.0,5.0,-100.00,ENE,74,4.0,6.0,57,0.00,,,0.05,0.000000,,2013-03-04 09:52:00,
2013-03-04 05:01:00,18.0,5.0,-100.00,ENE,74,4.0,6.0,57,0.00,,,0.05,0.000000,,2013-03-04 10:01:00,
2013-03-04 05:11:00,18.0,5.0,-100.00,ENE,74,4.0,6.0,57,0.00,,,0.05,0.000000,,2013-03-04 10:11:00,
2013-03-04 05:21:00,18.0,5.0,-100.00,ENE,74,4.0,6.0,57,0.00,,,0.05,0.000000,,2013-03-04 10:21:00,
2013-03-04 05:31:00,18.0,5.0,-100.00,ENE,74,4.0,6.0,57,0.00,,,0.05,0.000000,,2013-03-04 10:31:00,
2013-03-04 05:52:00,17.0,6.0,-100.00,East,85,4.0,7.0,60,0.00,,,0.04,0.000000,,2013-03-04 10:52:00,
2013-03-04 06:01:00,17.0,6.0,-100.00,East,85,4.0,7.0,60,0.00,,,0.04,0.000000,,2013-03-04 11:01:00,
2013-03-04 06:11:00,17.0,6.0,-100.00,East,85,4.0,7.0,60,0.00,,,0.04,0.000000,,2013-03-04 11:11:00,
2013-03-04 06:21:00,17.0,6.0,-100.00,East,85,4.0,7.0,60,0.00,,,0.04,0.000000,,2013-03-04 11:21:00,
2013-03-04 06:31:00,17.0,6.0,-100.00,East,85,4.0,7.0,60,0.00,,,0.04,0.000000,,2013-03-04 11:31:00,
2013-03-04 06:52:00,16.0,6.0,-100.00,East,86,5.0,8.0,63,0.00,,,0.02,0.000000,,2013-03-04 11:52:00,
2013-03-04 07:01:00,16.0,6.0,-100.00,East,86,5.0,8.0,63,0.00,,,0.02,0.000000,,2013-03-04 12:01:00,
2013-03-04 07:11:00,16.0,6.0,-100.00,East,86,5.0,8.0,63,0.00,,,0.02,0.000000,,2013-03-04 12:11:00,
2013-03-04 07:22:00,16.0,6.0,-100.00,East,86,5.0,8.0,63,0.00,,,0.02,0.000000,,2013-03-04 12:22:00,
2013-03-04 07:32:00,16.0,6.0,-100.00,East,86,5.0,8.0,63,0.00,,,0.02,0.000000,,2013-03-04 12:32:00,
2013-03-04 08:02:00,15.0,5.0,-100.00,NE,34,0.0,6.0,64,0.00,,,0.01,0.000000,,2013-03-04 13:02:00,
2013-03-04 08:11:00,15.0,5.0,-100.00,NE,34,0.0,6.0,64,0.00,,,0.01,0.000000,,2013-03-04 13:11:00,
2013-03-04 08:21:00,15.0,5.0,-100.00,NE,34,0.0,6.0,64,0.00,,,0.01,0.000000,,2013-03-04 13:21:00,
2013-03-04 08:52:00,14.0,5.0,-100.00,East,80,5.0,8.0,68,0.00,,,0.00,0.000000,,2013-03-04 13:52:00,
2013-03-04 09:01:00,14.0,5.0,-100.00,East,80,5.0,8.0,68,0.00,,,0.00,0.000000,,2013-03-04 14:01:00,
2013-03-04 09:52:00,14.0,5.0,-100.00,ENE,71,4.0,9.0,66,0.00,,,0.00,4.000000,,2013-03-04 14:52:00,
2013-03-04 10:01:00,14.0,5.0,-100.00,ENE,71,4.0,9.0,66,0.00,,,0.00,4.000000,,2013-03-04 15:01:00,
2013-03-04 10:11:00,14.0,5.0,-100.00,ENE,71,4.0,9.0,66,0.00,,,0.00,4.000000,,2013-03-04 15:11:00,
2013-03-04 10:21:00,14.0,5.0,-100.00,ENE,71,4.0,9.0,66,0.00,,,0.00,4.000000,,2013-03-04 15:21:00,
2013-03-04 11:02:00,18.0,6.0,-100.00,East,94,5.0,9.0,59,0.00,,,0.00,111.000000,,2013-03-04 16:02:00,
2013-03-04 12:02:00,23.0,8.0,-100.00,ESE,115,3.0,9.0,53,-99.99,,,0.00,294.000000,,2013-03-04 17:02:00,
2013-03-04 12:52:00,27.0,9.0,-100.00,SE,125,4.0,7.0,46,0.00,,,0.00,462.000000,,2013-03-04 17:52:00,
2013-03-04 13:01:00,27.0,9.0,-100.00,SE,125,4.0,7.0,46,0.00,,,0.00,462.000000,,2013-03-04 18:01:00,
2013-03-04 13:11:00,27.0,9.0,-100.00,SE,125,4.0,7.0,46,0.00,,,0.00,462.000000,,2013-03-04 18:11:00,
2013-03-04 13:21:00,27.0,9.0,-100.00,SE,125,4.0,7.0,46,0.00,,,0.00,462.000000,,2013-03-04 18:21:00,
2013-03-04 13:31:00,27.0,9.0,-100.00,SE,125,4.0,7.0,46,0.00,,,0.00,462.000000,,2013-03-04 18:31:00,
2013-03-04 13:52:00,34.0,11.0,-100.00,South,184,2.0,9.0,38,0.00,,,0.00,593.000000,,2013-03-04 18:52:00,
2013-03-04 14:01:00,34.0,11.0,-100.00,South,184,2.0,9.0,38,0.00,,,0.00,593.000000,,2013-03-04 19:01:00,
2013-03-04 14:11:00,34.0,11.0,-100.00,South,184,2.0,9.0,38,0.00,,,0.00,593.000000,,2013-03-04 19:11:00,
2013-03-04 14:21:00,34.0,11.0,-100.00,South,184,2.0,9.0,38,0.00,,,0.00,593.000000,,2013-03-04 19:21:00,
2013-03-04 14:31:00,34.0,11.0,-100.00,South,184,2.0,9.0,38,0.00,,,0.00,593.000000,,2013-03-04 19:31:00,
2013-03-04 15:01:00,36.0,8.0,-100.00,East,85,2.0,7.0,30,0.00,,,0.00,675.000000,,2013-03-04 20:01:00,
2013-03-04 15:11:00,36.0,8.0,-100.00,East,85,2.0,7.0,30,0.00,,,0.00,675.000000,,2013-03-04 20:11:00,
2013-03-04 15:21:00,36.0,8.0,-100.00,East,85,2.0,7.0,30,0.00,,,0.00,675.000000,,2013-03-04 20:21:00,
2013-03-04 15:31:00,36.0,8.0,-100.00,East,85,2.0,7.0,30,0.00,,,0.00,675.000000,,2013-03-04 20:31:00,
2013-03-04 15:52:00,39.0,5.0,-100.00,SSE,152,3.0,8.0,24,0.00,,,0.00,699.000000,,2013-03-04 20:52:00,
2013-03-04 16:01:00,39.0,5.0,-100.00,SSE,152,3.0,8.0,24,0.00,,,0.00,699.000000,,2013-03-04 21:01:00,
2013-03-04 16:11:00,39.0,5.0,-100.00,SSE,152,3.0,8.0,24,0.00,,,0.00,699.000000,,2013-03-04 21:11:00,
2013-03-04 16:21:00,39.0,5.0,-100.00,SSE,152,3.0,8.0,24,0.00,,,0.00,699.000000,,2013-03-04 21:21:00,
2013-03-04 16:31:00,39.0,5.0,-100.00,SSE,152,3.0,8.0,24,0.00,,,0.00,699.000000,,2013-03-04 21:31:00,
2013-03-04 17:01:00,38.0,-1.0,-100.00,ESE,122,7.0,16.0,19,0.00,,,0.00,664.000000,,2013-03-04 22:01:00,
2013-03-04 17:11:00,38.0,-1.0,-100.00,ESE,122,7.0,16.0,19,0.00,,,0.00,664.000000,,2013-03-04 22:11:00,
2013-03-04 17:21:00,38.0,-1.0,-100.00,ESE,122,7.0,16.0,19,0.00,,,0.00,664.000000,,2013-03-04 22:21:00,
2013-03-04 17:31:00,38.0,-1.0,-100.00,ESE,122,7.0,16.0,19,0.00,,,0.00,664.000000,,2013-03-04 22:31:00,
2013-03-04 17:52:00,40.0,5.0,-100.00,SW,236,10.0,16.0,23,0.00,,,0.00,570.000000,,2013-03-04 22:52:00,
2013-03-04 18:01:00,40.0,5.0,-100.00,SW,236,10.0,16.0,23,0.00,,,0.00,570.000000,,2013-03-04 23:01:00,
2013-03-04 18:11:00,40.0,5.0,-100.00,SW,236,10.0,16.0,23,0.00,,,0.00,570.000000,,2013-03-04 23:11:00,
2013-03-04 18:21:00,40.0,5.0,-100.00,SW,236,10.0,16.0,23,0.00,,,0.00,570.000000,,2013-03-04 23:21:00,
2013-03-04 18:31:00,40.0,5.0,-100.00,SW,236,10.0,16.0,23,0.00,,,0.00,570.000000,,2013-03-04 23:31:00,
2013-03-04 18:52:00,39.0,4.0,-100.00,West,261,11.0,17.0,23,0.00,,,0.00,427.000000,,2013-03-04 23:52:00,
2013-03-04 19:01:00,39.0,4.0,-100.00,West,261,11.0,17.0,23,0.00,,,0.00,427.000000,,2013-03-05 00:01:00,
2013-03-04 19:11:00,39.0,4.0,-100.00,West,261,11.0,17.0,23,0.00,,,0.00,427.000000,,2013-03-05 00:11:00,
2013-03-04 19:21:00,39.0,4.0,-100.00,West,261,11.0,17.0,23,0.00,,,0.00,427.000000,,2013-03-05 00:21:00,
2013-03-04 19:32:00,39.0,4.0,-100.00,West,261,11.0,17.0,23,0.00,,,0.00,427.000000,,2013-03-05 00:32:00,
2013-03-04 20:01:00,38.0,4.0,-100.00,WSW,245,8.0,15.0,23,0.00,,,0.00,252.000000,,2013-03-05 01:01:00,
2013-03-04 20:12:00,38.0,4.0,-100.00,WSW,245,8.0,15.0,23,0.00,,,0.00,252.000000,,2013-03-05 01:12:00,
2013-03-04 20:21:00,38.0,4.0,-100.00,WSW,245,8.0,15.0,23,0.00,,,0.00,252.000000,,2013-03-05 01:21:00,
2013-03-04 20:32:00,38.0,4.0,-100.00,WSW,245,8.0,15.0,23,0.00,,,0.00,252.000000,,2013-03-05 01:32:00,
2013-03-04 20:52:00,33.0,4.0,-100.00,WSW,246,10.0,18.0,29,0.00,,,0.00,59.000000,,2013-03-05 01:52:00,
2013-03-04 21:01:00,33.0,4.0,-100.00,WSW,246,10.0,18.0,29,0.00,,,0.00,59.000000,,2013-03-05 02:01:00,
2013-03-04 21:11:00,33.0,4.0,-100.00,WSW,246,10.0,18.0,29,0.00,,,0.00,59.000000,,2013-03-05 02:11:00,
2013-03-04 21:21:00,33.0,4.0,-100.00,WSW,246,10.0,18.0,29,0.00,,,0.00,59.000000,,2013-03-05 02:21:00,
2013-03-04 21:31:00,33.0,4.0,-100.00,WSW,246,10.0,18.0,29,0.00,,,0.00,59.000000,,2013-03-05 02:31:00,
2013-03-04 21:52:00,31.0,5.0,-100.00,WSW,243,4.0,17.0,33,0.00,,,0.00,0.000000,,2013-03-05 02:52:00,
2013-03-04 22:01:00,31.0,5.0,-100.00,WSW,243,4.0,17.0,33,0.00,,,0.00,0.000000,,2013-03-05 03:01:00,
2013-03-04 22:12:00,31.0,5.0,-100.00,WSW,243,4.0,17.0,33,0.00,,,0.00,0.000000,,2013-03-05 03:12:00,
2013-03-04 22:21:00,31.0,5.0,-100.00,WSW,243,4.0,17.0,33,0.00,,,0.00,0.000000,,2013-03-05 03:21:00,
2013-03-04 22:31:00,31.0,5.0,-100.00,WSW,243,4.0,17.0,33,0.00,,,0.00,0.000000,,2013-03-05 03:31:00,
2013-03-04 23:01:00,30.0,9.0,-100.00,SW,225,5.0,14.0,40,0.00,,,0.00,0.000000,,2013-03-05 04:01:00,
2013-03-04 23:11:00,30.0,9.0,-100.00,SW,225,5.0,14.0,40,0.00,,,0.00,0.000000,,2013-03-05 04:11:00,
2013-03-04 23:21:00,30.0,9.0,-100.00,SW,225,5.0,14.0,40,0.00,,,0.00,0.000000,,2013-03-05 04:21:00,
2013-03-04 23:52:00,28.0,6.0,-100.00,ESE,113,3.0,7.0,39,-99.99,,,0.00,0.000000,,2013-03-05 04:52:00,